Station MGZP4 - 9759394 - Mayaguez, PR Image indicating link to RSS feed of recent meteorological observations for station MGZP4


Conditions at MGZP4 as of
(9:30 am AST)
1330 GMT on 06/05/2023:
     

Click on the graph icon in the table below to see a time series plot of the last five days of that observation.

5-day plot - Wind Direction Wind Direction (WDIR):ESE ( 110 deg true )
5-day plot - Wind Speed Wind Speed (WSPD): 14.0 kts
5-day plot - Wind Gust Wind Gust (GST): 19.0 kts
5-day plot - Atmospheric Pressure Atmospheric Pressure (PRES):29.92 in
5-day plot - Air Temperature Air Temperature (ATMP): 87.4 °F
5-day plot - Water Temperature Water Temperature (WTMP): 84.7 °F
5-day plot - Wind Speed at 10 Meters Wind Speed at 10 meters (WSPD10M): 15.5 kts
5-day plot - Wind Speed at 20 Meters Wind Speed at 20 meters (WSPD20M): 17.5 kts
5-day plot -  Wind Speed, Wind Gust and Atmospheric Pressure Combined plot of Wind Speed, Gust, and Air Pressure
NOS Water Level Observation Network Water Level
Previous observations
TIME
(AST)
5-day plot - Wind Direction
WDIR
 
5-day plot - Wind Speed
WSPD
kts
5-day plot - Wind Gust
GST
kts
5-day plot - Wave Height
WVHT
ft
5-day plot - Dominant Wave Period
DPD
sec
5-day plot - Average Wave Period
APD
sec
5-day plot - Mean Wave Direction
MWD
 
5-day plot - Atmospheric Pressure
PRES
in
5-day plot - Pressure Tendency
PTDY
in
5-day plot - Air Temperature
ATMP
°F
5-day plot - Water Temperature
WTMP
°F
5-day plot - Dew Point
DEWP
°F
5-day plot - Salinity
SAL
psu
5-day plot - Visibility
VIS
nmi
5-day plot - Tide (above MLLW)
TIDE
ft
2023-06-05 09:24 amESE 13.0 15.9----29.91- 87.4 84.7----
2023-06-05 09:18 am SE 12.0 15.0----29.91- 86.7 84.7----
2023-06-05 09:12 amESE 11.1 15.0----29.91- 87.1 84.7----
2023-06-05 09:06 am SE 9.9 15.9----29.92- 87.1 84.7----
2023-06-05 09:00 amESE 9.9 14.0----29.92+0.03 86.7 84.7----
2023-06-05 08:54 amESE 12.0 14.0----29.92- 86.9 84.7----
2023-06-05 08:48 amESE 11.1 14.0----29.92- 86.7 84.7----
2023-06-05 08:42 am SE 11.1 14.0----29.92- 86.0 84.7----
2023-06-05 08:36 amESE 11.1 13.0----29.92- 86.0 84.7----
2023-06-05 08:30 am SE 8.9 12.0----29.92- 85.5 84.7----
2023-06-05 08:24 am SE 8.9 14.0----29.91- 85.3 84.7----
2023-06-05 08:18 am-------29.91- 84.7 84.7----
2023-06-05 08:12 am-------29.91- 84.6 84.7----
2023-06-05 08:06 am-------29.91- 84.7 84.7----
2023-06-05 08:00 am SE 7.0 14.0----29.91+0.04 84.4 84.7----
2023-06-05 07:54 am SE 8.9 12.0----29.91- 84.2 84.7----
2023-06-05 07:48 am SE 8.9 12.0----29.91- 84.0 84.6----
2023-06-05 07:42 am SE 8.0 13.0----29.91- 84.0 84.6----
2023-06-05 07:36 am SE 8.0 11.1----29.91- 83.8 84.7----
2023-06-05 07:30 amESE 8.9 13.0----29.91- 83.7 84.7----
2023-06-05 07:24 am SE 9.9 13.0----29.91- 83.7 84.6----
2023-06-05 07:18 am SE 7.0 11.1----29.91- 83.5 84.6----
2023-06-05 07:12 am SE 6.0 8.9----29.90- 83.5 84.6----
2023-06-05 07:06 am SE 6.0 8.0----29.90- 83.1 84.6----
2023-06-05 07:00 am SE 7.0 9.9----29.90+0.03 82.9 84.6----
2023-06-05 06:54 am SE 6.0 8.0----29.90- 82.8 84.6----
2023-06-05 06:48 am SE 7.0 9.9----29.89- 82.6 84.6----
2023-06-05 06:42 am SE 5.1 8.0----29.90- 82.6 84.6----
2023-06-05 06:36 am SE 6.0 8.0----29.89- 82.4 84.7----
2023-06-05 06:30 am SE 6.0 8.0----29.89- 82.2 84.6----
2023-06-05 06:24 am SE 6.0 7.0----29.89- 82.4 84.6----
2023-06-05 06:18 am SE 6.0 7.0----29.89- 82.2 84.7----
2023-06-05 06:12 am SE 5.1 7.0----29.89- 82.2 84.7----
2023-06-05 06:06 amESE 6.0 7.0----29.89- 82.2 84.7----
2023-06-05 06:00 amESE 5.1 6.0----29.89+0.01 82.4 84.7----
2023-06-05 05:54 am SE 5.1 8.9----29.88- 82.4 84.7----
2023-06-05 05:48 am SE 6.0 8.9----29.88-- 84.7----
2023-06-05 05:42 am SE 7.0 9.9----29.88-- 84.7----
2023-06-05 05:36 am SE 8.0 9.9----29.88-- 84.7----
2023-06-05 05:30 am SE 6.0 8.9----29.88- 82.4 84.6----
2023-06-05 05:24 am SE 8.0 11.1----29.88- 82.4 84.7----
2023-06-05 05:18 am SE 8.0 8.9----29.88- 82.4 84.7----
2023-06-05 05:12 am SE 7.0 8.9----29.88- 82.4 84.7----
2023-06-05 05:06 amSSE 7.0 8.0----29.88- 82.4 84.7----
2023-06-05 05:00 am SE 7.0 8.9----29.88+0.00 82.4 84.7----
2023-06-05 04:54 am SE 6.0 8.9----29.88- 82.4 84.7----
2023-06-05 04:48 am SE 7.0 8.9----29.88-- 84.7----
2023-06-05 04:42 am SE 6.0 9.9----29.88-- 84.7----
2023-06-05 04:36 am SE 7.0 9.9----29.88-- 84.7----
2023-06-05 04:30 am SE 8.9 9.9----29.88- 82.6 84.7----
2023-06-05 04:24 am SE 8.9 12.0----29.88- 82.6 84.7----
2023-06-05 04:18 am SE 6.0 9.9----29.88- 82.4 84.7----
2023-06-05 04:12 am SE 7.0 9.9----29.88- 82.4 84.7----
2023-06-05 04:06 am SE 8.0 12.0----29.88- 82.8 84.7----
2023-06-05 04:00 am SE 9.9 12.0----29.87-0.01 82.6 84.7----
2023-06-05 03:54 am SE 8.0 11.1----29.88- 82.9 84.7----
2023-06-05 03:48 am SE 8.0 11.1----29.88- 82.8 84.7----
2023-06-05 03:42 am SE 8.9 11.1----29.88- 82.8 84.7----
2023-06-05 03:36 am SE 7.0 8.9----29.88- 82.8 84.7----
2023-06-05 03:30 am SE 7.0 11.1----29.88- 82.9 84.7----
2023-06-05 03:24 amESE 7.0 8.9----29.88- 82.8 84.7----
2023-06-05 03:18 am SE 6.0 8.9----29.88- 82.8 84.7----
2023-06-05 03:12 amESE 8.0 11.1----29.87- 82.8 84.7----
2023-06-05 03:06 am SE 8.0 11.1----29.87- 82.8 84.9----
2023-06-05 03:00 am SE 5.1 8.0----29.88-0.03 82.8 84.9----
2023-06-05 02:54 am SE 7.0 8.9----29.88- 82.9 84.9----
2023-06-05 02:48 am SE 7.0 15.0----29.88- 82.9 84.9----
2023-06-05 02:42 amSSE 11.1 14.0----29.87- 82.9 84.9----
2023-06-05 02:36 amESE 7.0 11.1----29.88- 82.8 84.9----
2023-06-05 02:30 am SE 11.1 13.0----29.88- 82.8 84.9----
2023-06-05 02:24 am SE 8.0 11.1----29.87- 82.8 84.9----
2023-06-05 02:18 am SE 7.0 8.9----29.87- 82.9 84.9----
2023-06-05 02:12 am SE 6.0 8.0----29.88- 82.6 84.9----
2023-06-05 02:06 am SE 7.0 8.0----29.88- 82.6 84.9----
2023-06-05 02:00 amSSE 5.1 7.0----29.88-0.05 82.6 84.9----
2023-06-05 01:54 am SE 5.1 6.0----29.88- 82.6 84.9----
2023-06-05 01:48 am SE 4.1 8.0----29.88- 82.4 84.9----
2023-06-05 01:42 amESE 5.1 6.0----29.88- 82.4 85.1----
2023-06-05 01:36 am SE 5.1 8.0----29.88- 82.6 85.1----
2023-06-05 01:30 am SE 7.0 8.9----29.88- 82.6-----
2023-06-05 01:24 am SE 8.0 9.9----29.88- 82.8-----
2023-06-05 01:18 am SE 8.0 11.1----29.88- 82.8 85.1----
2023-06-05 01:12 am SE 8.0 11.1----29.88- 82.8 85.1----
2023-06-05 01:06 am SE 8.0 13.0----29.88- 82.8 85.1----
2023-06-05 01:00 am SE 9.9 13.0----29.88-0.03 82.9 85.1----
2023-06-05 12:54 am SE 8.0 12.0----29.88- 82.8 85.1----
2023-06-05 12:48 am SE 11.1 14.0----29.89- 82.8 85.1----
2023-06-05 12:42 am SE 11.1 15.0----29.89- 82.9 85.1----
2023-06-05 12:36 am SE 9.9 13.0----29.90- 82.9 85.3----
2023-06-05 12:30 am SE 9.9 14.0----29.90- 82.9 85.3----
2023-06-05 12:24 am SE 8.9 12.0----29.91- 82.9 85.3----
2023-06-05 12:18 am SE 9.9 13.0----29.91- 82.9 85.3----
2023-06-05 12:12 am SE 9.9 13.0----29.91- 83.1 85.3----
2023-06-05 12:06 am SE 11.1 14.0----29.91- 83.1 85.3----
2023-06-05 12:00 am SE 8.9 14.0----29.91- 83.1 85.3----
2023-06-04 11:54 pm SE 12.0 14.0----29.91- 83.1 85.3----
2023-06-04 11:48 pm SE 12.0 15.0----29.91- 83.3 85.3----
2023-06-04 11:42 pm SE 11.1 14.0----29.91- 83.3 85.3----
2023-06-04 11:36 pm SE 11.1 14.0----29.92- 83.3 85.3----
2023-06-04 11:30 pm SE 8.9 12.0----29.92- 83.5 85.3----
2023-06-04 11:24 pm SE 9.9 12.0----29.92- 83.5 85.5----
2023-06-04 11:18 pm SE 9.9 13.0----29.92- 83.5 85.5----
2023-06-04 11:12 pmESE 8.9 13.0----29.92- 83.5 85.5----
2023-06-04 11:06 pmESE 9.9 12.0----29.93- 83.7 85.5----
2023-06-04 11:00 pm SE 8.9 13.0----29.93- 83.7 85.5----
2023-06-04 10:54 pm SE 8.9 15.0----29.92- 83.8 85.5----
2023-06-04 10:48 pm SE 9.9 15.9----29.92- 84.0 85.5----
2023-06-04 10:42 pm SE 9.9 13.0----29.92- 83.8 85.5----
2023-06-04 10:36 pmESE 9.9 14.0----29.92- 83.8 85.5----
2023-06-04 10:30 pmESE 11.1 14.0----29.92- 83.7 85.5----
2023-06-04 10:24 pm SE 9.9 12.0----29.91- 83.7 85.5----
2023-06-04 10:18 pm SE 11.1 13.0----29.91- 83.7 85.5----
2023-06-04 10:12 pm SE 8.9 13.0----29.91- 83.7 85.5----
2023-06-04 10:06 pm SE 8.9 12.0----29.91- 83.7 85.5----
2023-06-04 10:00 pm SE 8.9 11.1----29.91- 83.5 85.6----
2023-06-04 09:54 pm SE 8.0 11.1----29.91- 83.5 85.6----
2023-06-04 09:48 pmSSE 8.0 9.9----29.90- 83.7 85.6----
2023-06-04 09:42 pm SE 8.0 9.9----29.90- 83.7 85.6----
2023-06-04 09:36 pm SE 8.0 11.1----29.89- 83.8 85.6----
2023-06-04 09:30 pm--------- 83.8 85.6----
2023-06-04 09:24 pm--------- 83.8 85.6----
2023-06-04 09:18 pm--------- 83.8 85.6----
2023-06-04 09:12 pm--------- 84.0 85.6----
2023-06-04 09:06 pm--------- 83.8 85.6----
2023-06-04 09:00 pm--------- 84.0 85.6----
2023-06-04 08:54 pm--------- 84.0 85.6----
2023-06-04 08:48 pm--------- 84.0 85.6----
2023-06-04 08:42 pm--------- 84.2 85.8----
2023-06-04 08:36 pm--------- 84.2 85.8----
2023-06-04 08:30 pm--------- 84.2 85.8----
2023-06-04 08:24 pm--------- 84.4 85.8----
2023-06-04 08:18 pm--------- 84.4 85.8----
2023-06-04 08:12 pm--------- 84.6 85.8----
2023-06-04 08:06 pm--------- 84.6 85.8----
2023-06-04 08:00 pm--------- 84.6 85.8----
2023-06-04 07:54 pm--------- 84.7 85.8----
2023-06-04 07:48 pm--------- 84.7 85.8----
2023-06-04 02:00 pmSSE 15.0 18.1----29.85-0.03 88.5 85.8----
2023-06-04 01:54 pmESE 19.0 22.9----29.85- 88.2 85.8----
2023-06-04 01:48 pm SE 14.0 20.0----29.85-- 85.8----
2023-06-04 01:42 pm SE 14.0 20.0----29.85-- 85.8----
2023-06-04 01:36 pm SE 14.0 22.0----29.85-- 85.6----
2023-06-04 01:30 pmESE 17.1 21.0----29.85-- 85.6----
2023-06-04 01:24 pm SE 15.0 22.9----29.85-- 85.6----
2023-06-04 01:18 pm SE 17.1 21.0----29.85-- 85.6----
2023-06-04 01:12 pmSSE 17.1 24.1----29.85-- 85.6----
2023-06-04 01:06 pmESE 15.9 21.0----29.85-- 85.5----
2023-06-04 01:00 pm--------- 88.7-----
2023-06-04 12:54 pm--------- 88.0-----
2023-06-04 12:48 pm SE 13.0 19.0----29.85- 88.5 85.5----
2023-06-04 12:42 pmSSE 14.0 21.0----29.85- 88.3 85.5----
2023-06-04 12:36 pmSSE 15.9 21.0----29.86- 88.2 85.3----
2023-06-04 12:30 pmSSE 15.9 22.0----29.86- 88.2 85.3----
2023-06-04 12:24 pm SE 15.0 20.0----29.86- 88.3 85.3----
2023-06-04 12:18 pm SE 17.1 22.9----29.86- 88.2 85.3----
2023-06-04 12:12 pm SE 12.0 18.1----29.86- 88.7 85.3----
2023-06-04 12:06 pmESE 15.0 20.0----29.86- 88.7 85.3----
2023-06-04 12:00 pmESE 15.0 21.0----29.86+0.00 88.2 85.3----
2023-06-04 11:54 am SE 17.1 21.0----29.86- 88.3 85.3----
2023-06-04 11:48 amSSE 14.0 21.0----29.86- 88.2 85.3----
2023-06-04 11:42 am SE 15.9 21.0----29.86- 88.2 85.3----
2023-06-04 11:36 amSSE 15.0 21.0----29.86- 88.3 85.1----
2023-06-04 11:30 amESE 13.0 20.0----29.87- 88.7 85.1----
2023-06-04 11:24 am SE 17.1 21.0----29.87- 88.3 85.1----
2023-06-04 11:18 am SE 15.9 21.0----29.87- 88.0 85.1----
2023-06-04 11:12 am SE 17.1 21.0----29.87- 87.8 85.1----
2023-06-04 11:06 amSSE 17.1 21.0----29.87- 88.0 85.1----
2023-06-04 11:00 am SE 14.0 20.0----29.88- 88.2 85.1----
2023-06-04 10:54 amESE 15.0 21.0----29.88- 88.2 85.1----
2023-06-04 10:48 am SE 17.1 22.0----29.88- 88.0 85.1----
2023-06-04 10:42 am SE 15.9 21.0----29.87- 88.2 85.1----
2023-06-04 10:36 am SE 13.0 20.0----29.87- 88.2 84.9----
2023-06-04 10:30 am SE 15.9 20.0----29.87- 87.8 84.9----
2023-06-04 10:24 am SE 15.0 24.1----29.87- 88.2 84.9----
2023-06-04 10:18 am SE 15.9 22.0----29.87- 87.4 84.9----
2023-06-04 10:12 am SE 15.9 21.0----29.87- 87.4 84.9----
2023-06-04 10:06 am SE 15.9 20.0----29.87- 87.3 84.9----
2023-06-04 10:00 am SE 15.9 20.0----29.87- 87.4 84.9----
2023-06-04 09:54 amESE 15.9 21.0----29.88- 87.1 84.9----